Flag for Germany Weather past 2 weeks in Greven, North Rhine-Westphalia, Germany

37 °F

Partly sunny.

Feels Like: 30 °F
Forecast: 36 / 43 °F
Wind: 10 mph from Northeast

Location: Muenster / Osnabrueck

Current Time: Oct 13, 2015 at 10:20:00 AM

Latest Report: Oct 13, 2015 at 9:50 AM

Visibility: 6 mi

Pressure: 30.09 "Hg

Humidity: 87%

Dew point: 34 °F

Location of GrevenLocation

Historic Weather in Greven — Graph


Greven temperature yesterday

Maximum temperature yesterday: 48 °F (at 2:50 PM)
Minimum temperature yesterday: 36 °F (at 6:50 AM)
Average temperature yesterday: 42 °F

Past Weeks' High & Low Weather Summary

High66 °F (Oct 3, 4:50 PM)100% (Sep 28, 11:50 PM)30.66 "Hg (Sep 28, 11:50 PM)
Low34 °F (Oct 2, 7:20 AM)39% (Oct 2, 2:20 PM)29.59 "Hg (Oct 6, 7:20 AM)
Average52 °F81%30.15 "Hg
* Reported Sep 28 9:20 AM — Oct 13 9:20 AM, Greven, Weather by CustomWeather, © 2015

Note: Actual official high and low records may vary slightly from our data, if they occured in-between our weather recording intervals... More about our weather records


Greven weather history for previous 24 hours

Time TempWeatherWind HumidityBarometerVisibility
9:20 AM
Tue, Oct 13
37 °FPartly sunny.9 mph87%30.07 "Hg6 mi
8:50 AM36 °FClear.7 mph93%30.07 "Hg6 mi
8:20 AM34 °FClear.8 mph93%30.07 "Hg6 mi
7:50 AM34 °FPassing clouds.8 mph93%30.04 "HgN/A
7:20 AM34 °FPassing clouds.7 mph93%30.04 "HgN/A
6:50 AM34 °FPassing clouds.7 mph93%30.04 "HgN/A
6:20 AM34 °FPassing clouds.7 mph93%30.04 "HgN/A
5:20 AM36 °FPassing clouds.7 mph87%30.04 "HgN/A
4:50 AM36 °FPassing clouds.7 mph87%30.04 "HgN/A
4:20 AM36 °FPassing clouds.6 mph87%30.04 "HgN/A
3:50 AM36 °FPassing clouds.7 mph87%30.04 "HgN/A
3:20 AM36 °FPassing clouds.6 mph87%30.04 "HgN/A
2:50 AM36 °FClear.5 mph87%30.04 "Hg10 mi
2:20 AM36 °FPassing clouds.5 mph87%30.04 "HgN/A
1:50 AM36 °FPassing clouds.3 mph87%30.04 "HgN/A
1:20 AM37 °FPassing clouds.5 mph81%30.07 "HgN/A
12:50 AM37 °FPassing clouds.5 mph81%30.07 "HgN/A
12:20 AM37 °FPassing clouds.5 mph81%30.07 "HgN/A
11:50 PM
Mon, Oct 12
39 °FPassing clouds.5 mph75%30.07 "HgN/A
11:20 PM39 °FPassing clouds.5 mph75%30.07 "HgN/A
10:50 PM39 °FPassing clouds.5 mph75%30.07 "HgN/A
10:20 PM39 °FPassing clouds.5 mph81%30.07 "HgN/A
9:50 PM39 °FPassing clouds.6 mph75%30.07 "HgN/A
9:20 PM41 °FPassing clouds.6 mph70%30.07 "HgN/A
8:50 PM41 °FPassing clouds.6 mph70%30.07 "HgN/A
8:20 PM41 °FPassing clouds.3 mph76%30.09 "HgN/A
7:50 PM43 °FPassing clouds.3 mph71%30.09 "HgN/A
7:20 PM43 °FPassing clouds.5 mph71%30.09 "HgN/A
6:50 PM45 °FPassing clouds.5 mph71%30.09 "HgN/A
6:20 PM45 °FPassing clouds.5 mph71%30.07 "HgN/A
5:50 PM45 °FPassing clouds.6 mph71%30.07 "HgN/A
5:20 PM46 °FPassing clouds.6 mph66%30.07 "HgN/A
4:50 PM46 °FPassing clouds.7 mph62%30.07 "HgN/A
4:20 PM48 °FPassing clouds.7 mph58%30.09 "HgN/A
3:50 PM48 °FSunny.7 mph54%30.09 "Hg10 mi
3:20 PM48 °FPassing clouds.8 mph54%30.09 "HgN/A
2:50 PM48 °FPassing clouds.6 mph54%30.09 "HgN/A
2:20 PM46 °FPassing clouds.8 mph57%30.12 "HgN/A
1:50 PM46 °FPassing clouds.8 mph53%30.12 "HgN/A
1:20 PM46 °FCool.7 mph53%30.12 "HgN/A
12:50 PM46 °FSunny.6 mph57%30.12 "Hg10 mi
12:20 PM45 °FPassing clouds.7 mph57%30.12 "HgN/A
11:50 AM45 °FPassing clouds.8 mph57%30.12 "HgN/A
11:20 AM45 °FPassing clouds.8 mph61%30.12 "HgN/A
10:50 AM43 °FPassing clouds.9 mph61%30.12 "HgN/A
10:20 AM41 °FSunny.6 mph66%30.12 "Hg10 mi
Weather by CustomWeather, © 2015

See weather overviewHow to use our weather pages